Voltar ao catálogo

FENGYUN 1C DEB

AtivoSSO
NORAD 31634·DEBRIS·🇨🇳 China

Lançado May 10, 1999 de Taiyuan Satellite Launch Center

Loading…

Próximas Passagens (próximas 24 horas)

TLE

AtualizadoSource: Space-Track

Época: Sep 11, 2026, 20:52 UTC

1 31634U 99025CAQ 26254.86976875  .00000493  00000-0  38689-3 0  9990
2 31634  99.3330 309.8692 0092210 137.6234 223.2096 13.94881114603310

Acompanhe FENGYUN 1C DEB em tempo real com AllMySat

Download on the App Store